Simultaneous Nadir Overpasses (SNOs) Predictions

Prediction of SNOs between METOP-A and TERRA Satellite Orbit:

Table of predicted SNOs for the next 14.0 days since TLE Epoch: 7/11/2015
Index Date (METOP-A) Time (METOP-A) Lat,Lon (METOP-A) SZA (METOP-A ) Date (TERRA) Time (TERRA) Lat,Lon (TERRA) SZA (TERRA ) Distance(km) Time Diff (sec)
1 07/12/2015 03:04:30 -81.34, 1.65 117.87 07/12/2015 03:05:40 -81.34, 1.64 117.84 0.51 70
2 07/12/2015 03:55:10 81.35, 169.24 62.17 07/12/2015 03:55:06 81.35, 169.41 62.19 2.77 4
3 07/14/2015 22:38:48 -81.34, 67.98 117.48 07/14/2015 22:39:55 -81.34, 68.08 117.44 1.69 67
4 07/14/2015 23:29:27 81.35,-124.07 62.60 07/14/2015 23:29:21 81.34,-124.19 62.58 1.99 6
5 07/17/2015 18:13:06 -81.35, 134.67 117.00 07/17/2015 18:14:10 -81.35, 134.80 116.95 2.33 64
6 07/
